When you browse on this site, cookies collect data to enhance your experience and personalize the content and advertising you see.
Visit our Privacy Policy to learn more. By continuing to use the site, you agree to this use of cookies and data.
  • In Portugal
  • List of Countries
  • For 7 days
  • Water Temperature
  • Satellite Maps
  • Weather Map
  • Weather Widgets
  • user-avatar
    Login

    Hourly Weather Ballycastle

    Today, 18 July, Thursday

    Time Temperature Precipitation Wind Pressure Humidity
    00:00 +11°C° 0 mm 4 mps 751 mmHg 93%
    01:00 +11°C° 0 mm 4 mps 751 mmHg 94%
    02:00 +10°C° 0 mm 5 mps 750 mmHg 94%
    03:00 +10°C° 0 mm 5 mps 750 mmHg 95%
    04:00 +10°C° 0 mm 5 mps 750 mmHg 94%
    05:00 +10°C° 0 mm 5 mps 750 mmHg 94%
    06:00 +12°C° 0 mm 5 mps 750 mmHg 94%
    07:00 +13°C° 0.1 mm 6 mps 750 mmHg 92%
    08:00 +14°C° 0.1 mm 6 mps 750 mmHg 89%
    09:00 +15°C° 0.1 mm 6 mps 750 mmHg 86%
    10:00 +15°C° 0.5 mm 6 mps 750 mmHg 86%
    11:00 +16°C° 0.5 mm 6 mps 750 mmHg 85%
    12:00 +16°C° 0.5 mm 6 mps 750 mmHg 85%
    13:00 +16°C° 0.6 mm 6 mps 750 mmHg 85%
    14:00 +16°C° 0.6 mm 6 mps 750 mmHg 84%
    15:00 +16°C° 0.6 mm 6 mps 751 mmHg 84%
    16:00 +16°C° 0.4 mm 5 mps 751 mmHg 86%
    17:00 +16°C° 0.4 mm 5 mps 751 mmHg 87%
    18:00 +15°C° 0.4 mm 5 mps 750 mmHg 88%
    19:00 +14°C° 0.2 mm 4 mps 751 mmHg 90%
    20:00 +14°C° 0.2 mm 4 mps 751 mmHg 92%
    21:00 +13°C° 0.2 mm 4 mps 752 mmHg 93%
    22:00 +12°C° 0 mm 4 mps 752 mmHg 94%
    23:00 +12°C° 0 mm 4 mps 752 mmHg 94%

    Tomorrow, 19 July, Friday

    Time Temperature Precipitation Wind Pressure Humidity
    00:00 +11°C° 0 mm 4 mps 751 mmHg 95%
    01:00 +11°C° 0 mm 4 mps 751 mmHg 95%
    02:00 +11°C° 0 mm 3 mps 751 mmHg 94%
    03:00 +11°C° 0 mm 3 mps 751 mmHg 94%
    04:00 +11°C° 0 mm 3 mps 751 mmHg 94%
    05:00 +12°C° 0 mm 3 mps 751 mmHg 94%
    06:00 +12°C° 0 mm 3 mps 750 mmHg 94%
    07:00 +13°C° 0 mm 3 mps 750 mmHg 91%
    08:00 +13°C° 0 mm 3 mps 750 mmHg 89%
    09:00 +14°C° 0 mm 3 mps 750 mmHg 86%
    10:00 +14°C° 0.5 mm 3 mps 749 mmHg 89%
    11:00 +14°C° 0.5 mm 4 mps 749 mmHg 91%
    12:00 +13°C° 0.5 mm 4 mps 748 mmHg 93%
    13:00 +13°C° 1.4 mm 3 mps 748 mmHg 94%
    14:00 +13°C° 1.4 mm 3 mps 748 mmHg 96%
    15:00 +15°C° 1.4 mm 2 mps 748 mmHg 97%
    16:00 +15°C° 0.2 mm 2 mps 747 mmHg 96%
    17:00 +14°C° 0.2 mm 3 mps 747 mmHg 96%
    18:00 +14°C° 0.2 mm 3 mps 747 mmHg 96%
    19:00 +13°C° 0 mm 3 mps 747 mmHg 96%
    20:00 +14°C° 0 mm 2 mps 747 mmHg 96%
    21:00 +14°C° 0 mm 2 mps 747 mmHg 96%
    22:00 +14°C° 0.1 mm 2 mps 747 mmHg 96%
    23:00 +14°C° 0.1 mm 2 mps 747 mmHg 96%

    Day after tomorrow, 20 July, Saturday

    Time Temperature Precipitation Wind Pressure Humidity
    00:00 +13°C° 0.1 mm 2 mps 747 mmHg 96%
    01:00 +14°C° 0.1 mm 2 mps 748 mmHg 96%
    02:00 +14°C° 0.1 mm 2 mps 748 mmHg 97%
    03:00 +14°C° 0.1 mm 2 mps 748 mmHg 97%
    04:00 +13°C° 0.1 mm 3 mps 748 mmHg 97%
    05:00 +13°C° 0.1 mm 3 mps 748 mmHg 96%
    06:00 +13°C° 0.1 mm 3 mps 748 mmHg 95%
    07:00 +13°C° 0 mm 4 mps 749 mmHg 92%
    08:00 +14°C° 0 mm 4 mps 749 mmHg 89%
    09:00 +15°C° 0 mm 4 mps 750 mmHg 86%
    10:00 +15°C° 0 mm 4 mps 750 mmHg 82%
    11:00 +15°C° 0 mm 4 mps 751 mmHg 78%
    12:00 +17°C° 0 mm 4 mps 751 mmHg 74%
    13:00 +17°C° 0 mm 4 mps 752 mmHg 74%
    14:00 +17°C° 0 mm 4 mps 752 mmHg 73%
    15:00 +16°C° 0 mm 5 mps 753 mmHg 73%
    16:00 +17°C° 0 mm 4 mps 753 mmHg 75%
    17:00 +15°C° 0 mm 4 mps 753 mmHg 78%
    18:00 +16°C° 0 mm 3 mps 754 mmHg 81%
    19:00 +14°C° 0 mm 3 mps 754 mmHg 83%
    20:00 +14°C° 0 mm 2 mps 755 mmHg 85%
    21:00 +13°C° 0 mm 2 mps 756 mmHg 87%
    22:00 +13°C° 0 mm 2 mps 756 mmHg 88%
    23:00 +12°C° 0 mm 3 mps 756 mmHg 89%

    21 July, Sunday

    Time Temperature Precipitation Wind Pressure Humidity
    00:00 +11°C° 0 mm 3 mps 756 mmHg 89%
    01:00 +11°C° 0 mm 3 mps 756 mmHg 89%
    02:00 +11°C° 0 mm 3 mps 756 mmHg 88%
    03:00 +11°C° 0 mm 3 mps 756 mmHg 88%
    04:00 +11°C° 0 mm 4 mps 756 mmHg 88%
    05:00 +12°C° 0 mm 4 mps 756 mmHg 87%
    06:00 +12°C° 0 mm 5 mps 756 mmHg 87%
    07:00 +12°C° 0.2 mm 5 mps 757 mmHg 88%
    08:00 +12°C° 0.2 mm 5 mps 757 mmHg 90%
    09:00 +13°C° 0.2 mm 6 mps 757 mmHg 92%
    10:00 +13°C° 0.3 mm 6 mps 757 mmHg 91%
    11:00 +14°C° 0.3 mm 7 mps 757 mmHg 91%
    12:00 +15°C° 0.3 mm 7 mps 756 mmHg 91%
    13:00 +16°C° 0.1 mm 7 mps 756 mmHg 88%
    14:00 +17°C° 0.1 mm 7 mps 757 mmHg 86%
    15:00 +18°C° 0.1 mm 7 mps 757 mmHg 84%
    16:00 +19°C° 0.9 mm 6 mps 756 mmHg 88%
    17:00 +17°C° 0.9 mm 5 mps 756 mmHg 91%
    18:00 +16°C° 0.9 mm 5 mps 756 mmHg 95%
    19:00 +16°C° 0.4 mm 5 mps 756 mmHg 94%
    20:00 +17°C° 0.4 mm 6 mps 756 mmHg 94%
    21:00 +17°C° 0.4 mm 7 mps 755 mmHg 93%
    22:00 +16°C° 0.8 mm 7 mps 755 mmHg 94%
    23:00 +16°C° 0.8 mm 8 mps 755 mmHg 94%

    22 July, Monday

    Time Temperature Precipitation Wind Pressure Humidity
    00:00 +16°C° 0.8 mm 8 mps 754 mmHg 94%
    01:00 +16°C° 0.3 mm 9 mps 754 mmHg 93%
    02:00 +16°C° 0.3 mm 9 mps 754 mmHg 93%
    03:00 +17°C° 0.3 mm 9 mps 753 mmHg 92%
    04:00 +17°C° 0 mm 9 mps 754 mmHg 91%
    05:00 +17°C° 0 mm 9 mps 754 mmHg 90%
    06:00 +17°C° 0 mm 9 mps 754 mmHg 89%
    07:00 +18°C° 0 mm 9 mps 755 mmHg 87%
    08:00 +18°C° 0 mm 8 mps 755 mmHg 85%
    09:00 +20°C° 0 mm 8 mps 755 mmHg 83%
    10:00 +21°C° 0 mm 8 mps 756 mmHg 80%
    11:00 +22°C° 0 mm 8 mps 756 mmHg 78%
    12:00 +23°C° 0 mm 8 mps 756 mmHg 75%
    13:00 +23°C° 0 mm 8 mps 756 mmHg 75%
    14:00 +23°C° 0 mm 8 mps 756 mmHg 75%
    15:00 +24°C° 0 mm 8 mps 756 mmHg 74%
    16:00 +23°C° 0 mm 8 mps 756 mmHg 77%
    17:00 +23°C° 0 mm 8 mps 757 mmHg 79%
    18:00 +22°C° 0 mm 8 mps 757 mmHg 81%
    19:00 +21°C° 0 mm 7 mps 757 mmHg 82%
    20:00 +20°C° 0 mm 7 mps 757 mmHg 84%
    21:00 +18°C° 0 mm 7 mps 757 mmHg 85%
    22:00 +18°C° 0 mm 7 mps 757 mmHg 87%
    23:00 +17°C° 0 mm 6 mps 757 mmHg 89%

    23 July, Tuesday

    Time Temperature Precipitation Wind Pressure Humidity
    00:00 +16°C° 0 mm 6 mps 757 mmHg 91%
    01:00 +16°C° 0 mm 6 mps 757 mmHg 91%
    02:00 +16°C° 0 mm 6 mps 757 mmHg 92%
    03:00 +16°C° 0 mm 6 mps 757 mmHg 93%
    04:00 +16°C° 0 mm 6 mps 757 mmHg 93%
    05:00 +16°C° 0 mm 6 mps 757 mmHg 92%
    06:00 +16°C° 0 mm 6 mps 756 mmHg 92%
    07:00 +17°C° 0 mm 6 mps 756 mmHg 88%
    08:00 +19°C° 0 mm 6 mps 756 mmHg 84%
    09:00 +20°C° 0 mm 7 mps 756 mmHg 80%
    10:00 +20°C° 0 mm 7 mps 756 mmHg 78%
    11:00 +21°C° 0 mm 7 mps 756 mmHg 77%
    12:00 +21°C° 0 mm 7 mps 756 mmHg 75%
    13:00 +22°C° 0 mm 7 mps 756 mmHg 75%
    14:00 +22°C° 0 mm 6 mps 755 mmHg 75%
    15:00 +22°C° 0 mm 6 mps 755 mmHg 75%
    16:00 +22°C° 0 mm 5 mps 755 mmHg 77%
    17:00 +22°C° 0 mm 5 mps 754 mmHg 78%
    18:00 +22°C° 0 mm 4 mps 754 mmHg 80%
    19:00 +21°C° 0 mm 3 mps 754 mmHg 83%
    20:00 +19°C° 0 mm 3 mps 754 mmHg 87%
    21:00 +18°C° 0 mm 2 mps 754 mmHg 90%
    22:00 +18°C° 0 mm 2 mps 754 mmHg 90%
    23:00 +18°C° 0 mm 2 mps 754 mmHg 90%
    Show more